Location: Endfield
(51.6667°N, 0.0667°W)
Time: 13:04:14
(UTC+00:00)

USA 290 - Pass Details

Date: 19 May 2024
Orbit: 403 x 414 km, 73.6° (Epoch: 12 May)

Event Time Altitude Azimuth Distance (km) Brightness Sun altitude
Rises 20:44:45 0° 331° (NNW) 2,345 7.8 -7.0°
Reaches altitude 10° 20:46:49 10° 327° (NNW) 1,478 6.6 -7.2°
Maximum altitude 20:50:00 57° 248° (WSW) 488 2.7 -7.5°
Drops below altitude 10° 20:53:09 10° 169° (S) 1,461 4.5 -7.9°
Enters shadow 20:53:34 - 168° (SSE) 1,636 4.7 -7.9°
